Warning: fopen(/var/www/metroair/shared/private/wxdata/TAF/AVWX/taf_KAMA): failed to open stream: Permission denied in /var/www/metroair/shared/private/library/orig_library/lib_airport.php on line 533

Warning: fwrite() expects parameter 1 to be resource, boolean given in /var/www/metroair/shared/private/library/orig_library/lib_airport.php on line 534

Warning: fclose() expects parameter 1 to be resource, boolean given in /var/www/metroair/shared/private/library/orig_library/lib_airport.php on line 535

MET2568 - Amarillo to Kansas City

Bombardier Dash-8-Q200
838AH
1 hr 45 mins
414 nm
Scheduled - Daily

Bid/PiRep Status

Bid was submitted on Oct 04 2016.

PiRep # 73570: Approved by Dave Nichols on October 5th, 2016 2:40 UTC

Departure

Departing from
Amarillo (AMA)
Departure gate
A2
Scheduled Departure
GMT 0115
Local 1915
METAR KAMA 222353Z 25017G22KT 10SM CLR 25/M02 A2978 RMK AO2 SLP048 T02501017 10278 20244 56013
TAF KAMA 222334Z 2300/2324 23009KT P6SM BKN300 FM231600 24030G40KT P6SM SCT300
  • No charts available

Arrival

Arriving at
Kansas City (MCI)
Arrival gate
Scheduled Arrival
GMT 0300
Local 2100
METAR KMCI 222253Z 28006KT 9SM BKN200 25/02 A2963 RMK AO2 SLP028 T02500017 $
TAF KMCI 221728Z 2218/2318 21014G22KT P6SM SCT200 FM222300 26006KT P6SM FEW200 FM231600 09012KT P6SM OVC080

Route Map

Planning Resources

PNH J26 ICT CNU.JHAWK6
PHN GAG ICT FRACA KMCI
KAMA BROKE ICT FRACA KMCI
KAMA-PNH-GAG-ICT-FOE-KMCI
KAMA UKDEW V12 EMP.JHAWK6 KMCI
Route:
OFP Layout:
Units:
Detailed Navlog:
ETOPS Planning:
Plan Stepclimbs:
Runway Analysis:
Include NOTAMS:
FIR NOTAMS:
Flight Maps:

Return Flights

MET2563
Bombardier Dash-8-Q200
1200 GMT
MET2565
Bombardier Dash-8-Q200
1810 GMT
MET2567
Bombardier Dash-8-Q200
2310 GMT

Popularity

Hub Current Bids PiReps this month Total PiReps
KMCI 0 0 8
KLAX 0 0 0
KBOS 0 0 0